Find Local Weather

World > North America > United States > Georgia

Uvalda, Georgia Regional Weather

Lat: 32.04N, Lon: 82.51W
Wx Zone: GAZ112
Feedback
Expires:201809230800;;071909
ASUS42 KFFC 230710
RWRGA 
WEATHER ROUNDUP FOR GEORGIA
NATIONAL WEATHER SERVICE PEACHTREE CITY GA
300 AM EDT SUN SEP 23 2018

NOTE: "FAIR" INDICATES FEW OR NO CLOUDS BELOW 12,000 FEET WITH NO
SIGNIFICANT WEATHER AND/OR OBSTRUCTIONS TO VISIBILITY. 

* = USE WITH CAUTION. THE STATIONS MARKED WITH AN ASTERISK MAY NOT
REPORT WEATHER SUCH AS PRECIPITATION, FOG, OR THUNDER AND ARE NOT 
QUALITY CONTROLLED BY NWS.

THE REMARK "TC" DENOTES TEMPERATURE READING IN DEGREES CELSIUS.


GAZ099>101-110>166-230800-
SOUTH GEORGIA
  
CITY           SKY/WX    TMP DP  RH WIND       PRES   REMARKS
SAVANNAH       FAIR      71  69  93 N3        30.04F                  
VALDOSTA       FAIR      73  71  93 CALM      30.01F                  
ALMA           FAIR      70  68  93 CALM      30.03F                  
ST SIMONS      MOCLDY    78  72  81 NW3       30.02F                  
FT STEWART     FAIR      69  67  94 CALM      30.02F                  
ALBANY         FAIR      71  66  84 CALM      30.03F                  
HUNTER AFB     FAIR      73  70  88 CALM      30.01F                  
MOODY AFB      FAIR      73  71  95 E5        30.01F                  
BRUNSWICK      FOG       72  68  88 CALM      30.03F VSB 1            

  
CITY           SKY/WX    TMP DP  RH WIND       PRES   REMARKS
BAINBRIDGE*      N/A     73  64  73 CALM      30.01F                  
MOULTRIE*      FAIR      72  68  88 CALM      30.03S                  
VIDALIA*       FAIR      72  66  83 CALM      30.05F                  
WAYCROSS*      FAIR      71  68  90 CALM      30.03F                  
DOUGLAS*       FAIR      72  70  94 E3        30.05S                  
$$
  

SKY/WX - Weather  TMP - Temperature  DP - Dew Point  RH - Relative Humidity
WIND - Wind Direction/Speed PRES - Barometric Pressure